Time,TemperatureF,DewpointF,PressureIn,WindDirection,WindDirectionDegrees,WindSpeedMPH,WindSpeedGustMPH,Humidity,HourlyPrecipIn,Conditions,Clouds,dailyrainin,SolarRadiationWatts/m^2,SoftwareType,DateUTC
2013-03-01 00:00:00,32.6,30.5,29.50,North,0,0.0,0.0,92,0.00,CLR,,0.00,0.0,WeatherDisplay:10.37,2013-03-01 05:00:00,
2013-03-01 00:06:00,32.6,30.5,29.50,North,0,0.0,0.0,92,0.00,CLR,,0.00,0.0,WeatherDisplay:10.37,2013-03-01 05:06:00,
2013-03-01 00:11:00,32.7,30.6,29.50,North,0,0.0,0.0,92,0.00,CLR,,0.00,0.0,WeatherDisplay:10.37,2013-03-01 05:11:00,
2013-03-01 00:16:00,32.8,30.7,29.50,North,0,0.0,0.0,92,0.00,CLR,,0.00,0.0,WeatherDisplay:10.37,2013-03-01 05:16:00,
2013-03-01 00:21:00,32.9,30.8,29.50,North,0,0.0,0.0,92,0.00,CLR,,0.00,0.0,WeatherDisplay:10.37,2013-03-01 05:21:00,
2013-03-01 00:26:00,33.0,30.9,29.50,North,0,0.0,0.0,92,0.00,CLR,,0.00,0.0,WeatherDisplay:10.37,2013-03-01 05:26:00,
2013-03-01 00:31:00,33.2,31.1,29.50,North,0,0.0,0.0,92,0.00,CLR,,0.00,0.0,WeatherDisplay:10.37,2013-03-01 05:31:00,
2013-03-01 00:36:00,33.3,31.2,29.50,North,0,0.0,0.0,92,0.00,CLR,,0.00,0.0,WeatherDisplay:10.37,2013-03-01 05:36:00,
2013-03-01 00:41:00,33.4,31.3,29.50,North,0,0.0,0.0,92,0.00,CLR,,0.00,0.0,WeatherDisplay:10.37,2013-03-01 05:41:00,
2013-03-01 00:46:00,33.6,31.8,29.50,North,0,0.0,0.0,93,0.00,CLR,,0.00,0.0,WeatherDisplay:10.37,2013-03-01 05:46:00,
2013-03-01 00:51:00,33.7,31.6,29.50,North,0,0.0,0.0,92,0.00,CLR,,0.00,0.0,WeatherDisplay:10.37,2013-03-01 05:51:00,
2013-03-01 00:56:00,33.8,32.0,29.50,North,0,0.0,0.0,93,0.00,CLR,,0.00,0.0,WeatherDisplay:10.37,2013-03-01 05:56:00,
2013-03-01 01:01:00,33.9,31.8,29.50,North,0,0.0,0.0,92,0.00,CLR,,0.00,0.0,WeatherDisplay:10.37,2013-03-01 06:01:00,
2013-03-01 01:06:00,34.0,31.9,29.50,North,0,0.0,0.0,92,0.00,CLR,,0.00,0.0,WeatherDisplay:10.37,2013-03-01 06:06:00,
2013-03-01 01:11:00,34.1,32.0,29.50,North,0,0.0,0.0,92,0.00,CLR,,0.00,0.0,WeatherDisplay:10.37,2013-03-01 06:11:00,
2013-03-01 01:16:00,34.1,32.3,29.50,North,0,0.0,0.0,93,0.00,CLR,,0.00,0.0,WeatherDisplay:10.37,2013-03-01 06:16:00,
2013-03-01 01:21:00,34.2,32.4,29.50,North,0,0.0,0.0,93,0.00,CLR,,0.00,0.0,WeatherDisplay:10.37,2013-03-01 06:21:00,
2013-03-01 01:26:00,34.2,32.4,29.50,North,0,0.0,0.0,93,0.00,CLR,,0.00,0.0,WeatherDisplay:10.37,2013-03-01 06:26:00,
2013-03-01 01:31:00,34.2,32.4,29.50,North,0,0.0,0.0,93,0.00,CLR,,0.00,0.0,WeatherDisplay:10.37,2013-03-01 06:31:00,
2013-03-01 01:36:00,34.2,32.4,29.50,North,0,0.0,0.0,93,0.00,CLR,,0.00,0.0,WeatherDisplay:10.37,2013-03-01 06:36:00,
2013-03-01 01:41:00,34.2,32.4,29.50,North,0,0.0,0.0,93,0.00,CLR,,0.00,0.0,WeatherDisplay:10.37,2013-03-01 06:41:00,
2013-03-01 01:46:00,34.1,32.3,29.50,North,0,0.0,0.0,93,0.00,CLR,,0.00,0.0,WeatherDisplay:10.37,2013-03-01 06:46:00,
2013-03-01 01:51:00,34.1,32.3,29.50,North,0,0.0,0.0,93,0.00,CLR,,0.00,0.0,WeatherDisplay:10.37,2013-03-01 06:51:00,
2013-03-01 01:56:00,34.1,32.3,29.50,North,0,0.0,0.0,93,0.00,CLR,,0.00,0.0,WeatherDisplay:10.37,2013-03-01 06:56:00,
2013-03-01 02:01:00,34.1,32.3,29.50,North,0,0.0,0.0,93,0.00,CLR,,0.00,0.0,WeatherDisplay:10.37,2013-03-01 07:01:00,
2013-03-01 02:06:00,34.1,32.3,29.50,North,0,0.0,0.0,93,0.00,CLR,,0.00,0.0,WeatherDisplay:10.37,2013-03-01 07:06:00,
2013-03-01 02:11:00,34.2,32.4,29.50,North,0,0.0,0.0,93,0.00,CLR,,0.00,0.0,WeatherDisplay:10.37,2013-03-01 07:11:00,
2013-03-01 02:16:00,34.2,32.4,29.50,North,0,0.0,0.0,93,0.00,CLR,,0.00,0.0,WeatherDisplay:10.37,2013-03-01 07:16:00,
2013-03-01 02:21:00,34.2,32.4,29.50,North,0,0.0,0.0,93,0.00,CLR,,0.00,0.0,WeatherDisplay:10.37,2013-03-01 07:21:00,
2013-03-01 02:26:00,34.2,32.4,29.50,North,0,0.0,0.0,93,0.00,CLR,,0.00,0.0,WeatherDisplay:10.37,2013-03-01 07:26:00,
2013-03-01 02:31:00,34.2,32.4,29.50,North,0,0.0,0.0,93,0.00,CLR,,0.00,0.0,WeatherDisplay:10.37,2013-03-01 07:31:00,
2013-03-01 02:36:00,34.3,32.5,29.50,North,0,0.0,0.0,93,0.00,CLR,,0.00,0.0,WeatherDisplay:10.37,2013-03-01 07:36:00,
2013-03-01 02:41:00,34.3,32.5,29.50,North,0,0.0,0.0,93,0.00,CLR,,0.00,0.0,WeatherDisplay:10.37,2013-03-01 07:41:00,
2013-03-01 02:46:00,34.4,32.6,29.50,North,0,0.0,0.0,93,0.00,CLR,,0.00,0.0,WeatherDisplay:10.37,2013-03-01 07:46:00,
2013-03-01 02:51:00,34.3,32.5,29.50,North,0,0.0,0.0,93,0.00,CLR,,0.00,0.0,WeatherDisplay:10.37,2013-03-01 07:51:00,
2013-03-01 02:56:00,34.4,32.6,29.50,North,0,0.0,0.0,93,0.00,CLR,,0.00,0.0,WeatherDisplay:10.37,2013-03-01 07:56:00,
2013-03-01 03:01:00,34.4,32.6,29.50,North,0,0.0,0.0,93,0.00,CLR,,0.00,0.0,WeatherDisplay:10.37,2013-03-01 08:01:00,
2013-03-01 03:06:00,34.4,32.6,29.50,North,0,0.0,0.0,93,0.00,CLR,,0.00,0.0,WeatherDisplay:10.37,2013-03-01 08:06:00,
2013-03-01 03:11:00,34.3,32.5,29.50,North,0,0.0,0.0,93,0.00,CLR,,0.00,0.0,WeatherDisplay:10.37,2013-03-01 08:11:00,
2013-03-01 03:16:00,34.2,32.4,29.50,North,0,0.0,0.0,93,0.00,CLR,,0.00,0.0,WeatherDisplay:10.37,2013-03-01 08:16:00,
2013-03-01 03:21:00,34.2,32.4,29.50,North,0,0.0,0.0,93,0.00,CLR,,0.00,0.0,WeatherDisplay:10.37,2013-03-01 08:21:00,
2013-03-01 03:26:00,34.1,32.0,29.50,North,0,0.0,0.0,92,0.00,CLR,,0.00,0.0,WeatherDisplay:10.37,2013-03-01 08:26:00,
2013-03-01 03:31:00,34.0,31.9,29.51,North,0,0.0,0.0,92,0.00,CLR,,0.00,0.0,WeatherDisplay:10.37,2013-03-01 08:31:00,
2013-03-01 03:36:00,33.9,31.8,29.51,North,0,0.0,0.0,92,0.00,CLR,,0.00,0.0,WeatherDisplay:10.37,2013-03-01 08:36:00,
2013-03-01 03:41:00,33.8,31.7,29.51,North,0,0.0,0.0,92,0.00,CLR,,0.00,0.0,WeatherDisplay:10.37,2013-03-01 08:41:00,
2013-03-01 03:46:00,33.7,31.9,29.51,North,0,0.0,0.0,93,0.00,CLR,,0.00,0.0,WeatherDisplay:10.37,2013-03-01 08:46:00,
2013-03-01 03:51:00,33.7,31.9,29.51,North,0,0.0,0.0,93,0.00,CLR,,0.00,0.0,WeatherDisplay:10.37,2013-03-01 08:51:00,
2013-03-01 03:56:00,33.5,31.7,29.51,North,0,0.0,0.0,93,0.00,CLR,,0.00,0.0,WeatherDisplay:10.37,2013-03-01 08:56:00,
2013-03-01 04:01:00,33.5,31.4,29.52,North,0,0.0,0.0,92,0.00,CLR,,0.00,0.0,WeatherDisplay:10.37,2013-03-01 09:01:00,
2013-03-01 04:06:00,33.5,31.4,29.51,North,0,0.0,0.0,92,0.00,CLR,,0.00,0.0,WeatherDisplay:10.37,2013-03-01 09:06:00,
2013-03-01 04:11:00,33.5,31.7,29.52,North,0,0.0,0.0,93,0.00,CLR,,0.00,0.0,WeatherDisplay:10.37,2013-03-01 09:11:00,
2013-03-01 04:16:00,33.5,31.7,29.52,North,0,0.0,0.0,93,0.00,CLR,,0.00,0.0,WeatherDisplay:10.37,2013-03-01 09:16:00,
2013-03-01 04:21:00,33.6,31.8,29.52,North,0,0.0,0.0,93,0.00,CLR,,0.00,0.0,WeatherDisplay:10.37,2013-03-01 09:21:00,
2013-03-01 04:26:00,33.7,31.9,29.52,North,0,0.0,0.0,93,0.00,CLR,,0.00,0.0,WeatherDisplay:10.37,2013-03-01 09:26:00,
2013-03-01 04:31:00,33.7,31.9,29.52,North,0,0.0,0.0,93,0.00,CLR,,0.00,0.0,WeatherDisplay:10.37,2013-03-01 09:31:00,
2013-03-01 04:36:00,33.7,31.9,29.52,North,0,0.0,0.0,93,0.00,CLR,,0.00,0.0,WeatherDisplay:10.37,2013-03-01 09:36:00,
2013-03-01 04:41:00,33.7,31.9,29.52,North,0,0.0,0.0,93,0.00,CLR,,0.00,0.0,WeatherDisplay:10.37,2013-03-01 09:41:00,
2013-03-01 04:46:00,33.7,31.9,29.53,North,0,0.0,0.0,93,0.00,CLR,,0.00,0.0,WeatherDisplay:10.37,2013-03-01 09:46:00,
2013-03-01 04:51:00,33.6,31.8,29.53,North,0,0.0,0.0,93,0.00,CLR,,0.00,0.0,WeatherDisplay:10.37,2013-03-01 09:51:00,
2013-03-01 04:56:00,33.5,31.7,29.53,North,0,0.0,0.0,93,0.00,CLR,,0.00,0.0,WeatherDisplay:10.37,2013-03-01 09:56:00,
2013-03-01 05:01:00,33.4,31.3,29.52,North,0,0.0,0.0,92,0.00,CLR,,0.00,0.0,WeatherDisplay:10.37,2013-03-01 10:01:00,
2013-03-01 05:06:00,33.2,31.1,29.52,North,0,0.0,0.0,92,0.00,CLR,,0.00,0.0,WeatherDisplay:10.37,2013-03-01 10:06:00,
2013-03-01 05:11:00,33.0,30.9,29.52,North,0,0.0,0.0,92,0.00,CLR,,0.00,0.0,WeatherDisplay:10.37,2013-03-01 10:11:00,
2013-03-01 05:16:00,32.8,31.0,29.52,North,0,0.0,0.0,93,0.00,CLR,,0.00,0.0,WeatherDisplay:10.37,2013-03-01 10:16:00,
2013-03-01 05:21:00,32.6,30.5,29.53,North,0,0.0,0.0,92,0.00,CLR,,0.00,0.0,WeatherDisplay:10.37,2013-03-01 10:21:00,
2013-03-01 05:26:00,32.5,30.4,29.53,North,0,0.0,0.0,92,0.00,CLR,,0.00,0.0,WeatherDisplay:10.37,2013-03-01 10:26:00,
2013-03-01 05:31:00,32.3,30.2,29.54,North,0,0.0,0.0,92,0.00,CLR,,0.00,0.0,WeatherDisplay:10.37,2013-03-01 10:31:00,
2013-03-01 05:36:00,32.2,30.1,29.54,North,0,0.0,0.0,92,0.00,CLR,,0.00,0.0,WeatherDisplay:10.37,2013-03-01 10:36:00,
2013-03-01 05:41:00,32.0,29.9,29.54,North,0,0.0,0.0,92,0.00,CLR,,0.00,0.0,WeatherDisplay:10.37,2013-03-01 10:41:00,
2013-03-01 05:46:00,31.9,29.8,29.54,North,0,0.0,0.0,92,0.00,CLR,,0.00,0.0,WeatherDisplay:10.37,2013-03-01 10:46:00,
2013-03-01 05:51:00,31.8,29.7,29.54,North,0,0.0,0.0,92,0.00,CLR,,0.00,0.0,WeatherDisplay:10.37,2013-03-01 10:51:00,
2013-03-01 05:56:00,31.6,29.5,29.54,North,0,0.0,0.0,92,0.00,CLR,,0.00,0.0,WeatherDisplay:10.37,2013-03-01 10:56:00,
2013-03-01 06:01:00,31.4,29.3,29.54,North,0,0.0,0.0,92,0.00,OVC,,0.00,0.0,WeatherDisplay:10.37,2013-03-01 11:01:00,
2013-03-01 06:06:00,31.2,29.1,29.54,North,0,0.0,0.0,92,0.00,OVC,,0.00,0.0,WeatherDisplay:10.37,2013-03-01 11:06:00,
2013-03-01 06:11:00,31.1,29.0,29.54,North,0,0.0,0.0,92,0.00,OVC,,0.00,0.0,WeatherDisplay:10.37,2013-03-01 11:11:00,
2013-03-01 06:16:00,30.9,28.9,29.54,North,0,0.0,0.0,92,0.00,OVC,,0.00,0.0,WeatherDisplay:10.37,2013-03-01 11:16:00,
2013-03-01 06:21:00,30.8,28.8,29.55,North,0,0.0,0.0,92,0.00,OVC,,0.00,0.0,WeatherDisplay:10.37,2013-03-01 11:21:00,
2013-03-01 06:26:00,30.7,28.7,29.55,North,0,0.0,0.0,92,0.00,OVC,,0.00,5.0,WeatherDisplay:10.37,2013-03-01 11:26:00,
2013-03-01 06:31:00,30.7,28.7,29.55,North,0,0.0,0.0,92,0.00,SCT,,0.00,5.0,WeatherDisplay:10.37,2013-03-01 11:31:00,
2013-03-01 06:36:00,30.6,28.6,29.55,North,0,0.0,0.0,92,0.00,SCT,,0.00,9.0,WeatherDisplay:10.37,2013-03-01 11:36:00,
2013-03-01 06:41:00,30.6,28.6,29.55,North,0,0.0,0.0,92,0.00,BKN,,0.00,11.0,WeatherDisplay:10.37,2013-03-01 11:41:00,
2013-03-01 06:46:00,30.7,28.7,29.55,North,0,0.0,0.0,92,0.00,BKN,,0.00,12.0,WeatherDisplay:10.37,2013-03-01 11:46:00,
2013-03-01 06:51:00,30.7,28.7,29.55,North,0,0.0,0.0,92,0.00,BKN,,0.00,16.0,WeatherDisplay:10.37,2013-03-01 11:51:00,
2013-03-01 06:56:00,30.7,28.7,29.55,North,0,0.0,0.0,92,0.00,BKN,,0.00,18.0,WeatherDisplay:10.37,2013-03-01 11:56:00,
2013-03-01 07:01:00,30.8,28.8,29.55,North,0,0.0,0.0,92,0.00,BKN,,0.00,21.0,WeatherDisplay:10.37,2013-03-01 12:01:00,
2013-03-01 07:06:00,30.8,28.8,29.56,North,0,0.0,0.0,92,0.00,BKN,,0.00,25.0,WeatherDisplay:10.37,2013-03-01 12:06:00,
2013-03-01 07:11:00,31.0,28.9,29.56,North,0,0.0,0.0,92,0.00,BKN,,0.00,30.0,WeatherDisplay:10.37,2013-03-01 12:11:00,
2013-03-01 07:16:00,31.2,29.4,29.56,North,0,0.0,0.0,93,0.00,BKN,,0.00,39.0,WeatherDisplay:10.37,2013-03-01 12:16:00,
2013-03-01 07:21:00,31.4,29.6,29.57,North,0,0.0,0.0,93,0.00,BKN,,0.00,51.0,WeatherDisplay:10.37,2013-03-01 12:21:00,
2013-03-01 07:26:00,31.8,30.0,29.57,North,0,0.0,0.0,93,0.00,BKN,,0.00,54.0,WeatherDisplay:10.37,2013-03-01 12:26:00,
2013-03-01 07:31:00,32.1,30.3,29.57,North,0,0.0,0.0,93,0.00,BKN,,0.00,63.0,WeatherDisplay:10.37,2013-03-01 12:31:00,
2013-03-01 07:36:00,32.4,30.6,29.57,North,0,0.0,0.0,93,0.00,BKN,,0.00,58.0,WeatherDisplay:10.37,2013-03-01 12:36:00,
2013-03-01 07:41:00,32.8,31.0,29.57,North,0,0.0,0.0,93,0.00,BKN,,0.00,60.0,WeatherDisplay:10.37,2013-03-01 12:41:00,
2013-03-01 07:46:00,33.2,31.4,29.57,North,0,0.0,0.0,93,0.00,BKN,,0.00,76.0,WeatherDisplay:10.37,2013-03-01 12:46:00,
2013-03-01 07:51:00,33.5,31.7,29.57,North,0,0.0,0.0,93,0.00,BKN,,0.00,83.0,WeatherDisplay:10.37,2013-03-01 12:51:00,
2013-03-01 07:56:00,33.8,32.0,29.57,North,0,0.0,0.0,93,0.00,BKN,,0.00,113.0,WeatherDisplay:10.37,2013-03-01 12:56:00,
2013-03-01 08:01:00,34.1,32.3,29.58,North,0,0.0,0.0,93,0.00,SCT,,0.00,84.0,WeatherDisplay:10.37,2013-03-01 13:01:00,
2013-03-01 08:06:00,34.4,32.6,29.58,North,0,0.0,0.0,93,0.00,BKN,,0.00,79.0,WeatherDisplay:10.37,2013-03-01 13:06:00,
2013-03-01 08:11:00,34.6,32.8,29.58,North,0,0.0,0.0,93,0.00,BKN,,0.00,151.0,WeatherDisplay:10.37,2013-03-01 13:11:00,
2013-03-01 08:16:00,35.0,33.2,29.58,North,0,0.0,0.0,93,0.00,SCT,,0.00,74.0,WeatherDisplay:10.37,2013-03-01 13:16:00,
2013-03-01 08:21:00,35.4,33.6,29.58,North,0,0.0,0.0,93,0.00,SCT,,0.00,218.0,WeatherDisplay:10.37,2013-03-01 13:21:00,
2013-03-01 08:26:00,35.8,33.7,29.58,North,0,0.0,0.0,92,0.00,FEW,,0.00,241.0,WeatherDisplay:10.37,2013-03-01 13:26:00,
2013-03-01 08:31:00,36.3,34.2,29.58,North,0,0.0,0.0,92,0.00,SCT,,0.00,174.0,WeatherDisplay:10.37,2013-03-01 13:31:00,
2013-03-01 08:36:00,36.8,34.4,29.58,North,0,0.0,0.0,91,0.00,BKN,,0.00,77.0,WeatherDisplay:10.37,2013-03-01 13:36:00,
2013-03-01 08:41:00,37.2,34.5,29.58,North,0,0.0,0.0,90,0.00,BKN,,0.00,113.0,WeatherDisplay:10.37,2013-03-01 13:41:00,
2013-03-01 08:46:00,37.7,34.8,29.58,North,0,0.0,0.0,89,0.00,BKN,,0.00,153.0,WeatherDisplay:10.37,2013-03-01 13:46:00,
2013-03-01 08:51:00,38.1,34.9,29.58,North,0,0.0,0.0,88,0.00,BKN,,0.00,214.0,WeatherDisplay:10.37,2013-03-01 13:51:00,
2013-03-01 08:56:00,38.5,35.0,29.58,North,0,0.0,0.0,87,0.00,SCT,,0.00,178.0,WeatherDisplay:10.37,2013-03-01 13:56:00,
2013-03-01 09:01:00,38.9,34.8,29.58,North,0,0.0,0.0,85,0.00,BKN,,0.00,156.0,WeatherDisplay:10.37,2013-03-01 14:01:00,
2013-03-01 09:06:00,39.1,34.7,29.58,North,0,0.0,0.0,84,0.00,SCT,,0.00,350.0,WeatherDisplay:10.37,2013-03-01 14:06:00,
2013-03-01 09:11:00,39.4,34.7,29.58,North,0,0.0,0.0,83,0.00,FEW,,0.00,304.0,WeatherDisplay:10.37,2013-03-01 14:11:00,
2013-03-01 09:16:00,39.8,34.4,29.58,North,0,0.0,0.0,81,0.00,FEW,,0.00,348.0,WeatherDisplay:10.37,2013-03-01 14:16:00,
2013-03-01 09:21:00,40.1,34.4,29.58,North,0,0.0,0.0,80,0.00,SCT,,0.00,322.0,WeatherDisplay:10.37,2013-03-01 14:21:00,
2013-03-01 09:26:00,40.5,34.5,29.58,North,0,0.0,0.0,79,0.00,SCT,,0.00,251.0,WeatherDisplay:10.37,2013-03-01 14:26:00,
2013-03-01 09:31:00,40.9,34.6,29.58,North,0,0.0,0.0,78,0.00,SCT,,0.00,281.0,WeatherDisplay:10.37,2013-03-01 14:31:00,
2013-03-01 09:36:00,41.3,34.6,29.58,North,0,0.0,0.0,77,0.00,SCT,,0.00,302.0,WeatherDisplay:10.37,2013-03-01 14:36:00,
2013-03-01 09:41:00,41.6,34.3,29.58,North,0,0.0,0.0,75,0.00,BKN,,0.00,281.0,WeatherDisplay:10.37,2013-03-01 14:41:00,
2013-03-01 09:46:00,41.7,33.7,29.58,North,0,0.0,0.0,73,0.00,SCT,,0.00,571.0,WeatherDisplay:10.37,2013-03-01 14:46:00,
2013-03-01 09:51:00,42.3,34.6,29.58,North,0,0.0,0.0,74,0.00,CLR,,0.00,454.0,WeatherDisplay:10.37,2013-03-01 14:51:00,
2013-03-01 09:56:00,42.5,33.4,29.58,North,0,0.0,0.0,70,0.00,CLR,,0.00,193.0,WeatherDisplay:10.37,2013-03-01 14:56:00,
2013-03-01 10:01:00,42.5,33.4,29.59,North,0,0.0,0.0,70,0.00,BKN,,0.00,206.0,WeatherDisplay:10.37,2013-03-01 15:01:00,
2013-03-01 10:06:00,42.1,33.0,29.58,North,0,0.0,0.0,70,0.00,BKN,,0.00,206.0,WeatherDisplay:10.37,2013-03-01 15:06:00,
2013-03-01 10:11:00,42.3,33.2,29.59,North,0,0.0,0.0,70,0.00,BKN,,0.00,229.0,WeatherDisplay:10.37,2013-03-01 15:11:00,
2013-03-01 10:16:00,42.7,33.9,29.59,North,0,0.0,0.0,71,0.00,FEW,,0.00,223.0,WeatherDisplay:10.37,2013-03-01 15:16:00,
2013-03-01 10:21:00,42.8,33.3,29.59,North,0,0.0,0.0,69,0.00,BKN,,0.00,221.0,WeatherDisplay:10.37,2013-03-01 15:21:00,
2013-03-01 10:26:00,42.9,33.1,29.58,North,0,0.0,0.0,68,0.00,BKN,,0.00,146.0,WeatherDisplay:10.37,2013-03-01 15:26:00,
2013-03-01 10:31:00,42.9,33.4,29.58,North,0,0.0,0.0,69,0.00,BKN,,0.00,130.0,WeatherDisplay:10.37,2013-03-01 15:31:00,
2013-03-01 10:36:00,42.7,33.2,29.59,North,0,0.0,0.0,69,0.00,BKN,,0.00,227.0,WeatherDisplay:10.37,2013-03-01 15:36:00,
2013-03-01 10:41:00,42.5,32.7,29.59,North,0,0.0,0.0,68,0.00,BKN,,0.00,190.0,WeatherDisplay:10.37,2013-03-01 15:41:00,
2013-03-01 10:46:00,42.3,32.5,29.59,North,0,0.0,0.0,68,0.00,BKN,,0.00,285.0,WeatherDisplay:10.37,2013-03-01 15:46:00,
2013-03-01 10:51:00,42.2,32.4,29.59,North,0,0.0,0.0,68,0.00,BKN,,0.00,265.0,WeatherDisplay:10.37,2013-03-01 15:51:00,
2013-03-01 10:56:00,42.1,32.3,29.59,North,0,0.0,0.0,68,0.00,BKN,,0.00,155.0,WeatherDisplay:10.37,2013-03-01 15:56:00,
2013-03-01 11:01:00,42.1,32.3,29.59,North,0,0.0,0.0,68,0.00,BKN,,0.00,134.0,WeatherDisplay:10.37,2013-03-01 16:01:00,
2013-03-01 11:06:00,42.0,31.8,29.60,North,0,0.0,0.0,67,0.00,BKN,,0.00,207.0,WeatherDisplay:10.37,2013-03-01 16:06:00,
2013-03-01 11:11:00,42.0,32.6,29.60,North,0,0.0,0.0,69,0.00,BKN,,0.00,251.0,WeatherDisplay:10.37,2013-03-01 16:11:00,
2013-03-01 11:16:00,42.2,32.8,29.60,North,0,0.0,0.0,69,0.00,BKN,,0.00,271.0,WeatherDisplay:10.37,2013-03-01 16:16:00,
2013-03-01 11:21:00,42.3,32.5,29.60,North,0,0.0,0.0,68,0.00,BKN,,0.00,234.0,WeatherDisplay:10.37,2013-03-01 16:21:00,
2013-03-01 11:26:00,42.4,32.2,29.60,North,0,0.0,0.0,67,0.00,BKN,,0.00,297.0,WeatherDisplay:10.37,2013-03-01 16:26:00,
2013-03-01 11:31:00,42.4,31.8,29.60,North,0,0.0,0.0,66,0.00,BKN,,0.00,244.0,WeatherDisplay:10.37,2013-03-01 16:31:00,
2013-03-01 11:36:00,42.5,32.3,29.60,North,0,0.0,0.0,67,0.00,BKN,,0.00,243.0,WeatherDisplay:10.37,2013-03-01 16:36:00,
2013-03-01 11:41:00,42.6,32.4,29.59,North,0,0.0,0.0,67,0.00,BKN,,0.00,227.0,WeatherDisplay:10.37,2013-03-01 16:41:00,
2013-03-01 11:46:00,42.6,32.4,29.59,North,0,0.0,0.0,67,0.00,BKN,,0.00,218.0,WeatherDisplay:10.37,2013-03-01 16:46:00,
2013-03-01 11:51:00,42.7,32.9,29.59,North,0,0.0,0.0,68,0.00,BKN,,0.00,250.0,WeatherDisplay:10.37,2013-03-01 16:51:00,
2013-03-01 11:56:00,42.7,32.1,29.59,North,0,0.0,0.0,66,0.00,BKN,,0.00,197.0,WeatherDisplay:10.37,2013-03-01 16:56:00,
2013-03-01 12:01:00,42.6,32.4,29.59,North,0,0.0,0.0,67,0.00,BKN,,0.00,250.0,WeatherDisplay:10.37,2013-03-01 17:01:00,
2013-03-01 12:06:00,42.6,32.4,29.59,North,0,0.0,0.0,67,0.00,BKN,,0.00,253.0,WeatherDisplay:10.37,2013-03-01 17:06:00,
2013-03-01 12:11:00,42.6,32.4,29.59,North,0,0.0,0.0,67,0.00,BKN,,0.00,213.0,WeatherDisplay:10.37,2013-03-01 17:11:00,
2013-03-01 12:16:00,42.6,32.4,29.59,North,0,0.0,0.0,67,0.00,BKN,,0.00,160.0,WeatherDisplay:10.37,2013-03-01 17:16:00,
2013-03-01 12:21:00,42.5,32.3,29.59,North,0,0.0,0.0,67,0.00,BKN,,0.00,199.0,WeatherDisplay:10.37,2013-03-01 17:21:00,
2013-03-01 12:26:00,42.4,32.2,29.59,North,0,0.0,0.0,67,0.00,BKN,,0.00,174.0,WeatherDisplay:10.37,2013-03-01 17:26:00,
2013-03-01 12:31:00,42.3,32.1,29.59,North,0,0.0,0.0,67,0.00,BKN,,0.00,165.0,WeatherDisplay:10.37,2013-03-01 17:31:00,
2013-03-01 12:36:00,42.2,32.0,29.58,North,0,0.0,0.0,67,0.00,BKN,,0.00,146.0,WeatherDisplay:10.37,2013-03-01 17:36:00,
2013-03-01 12:41:00,42.1,31.9,29.59,North,0,0.0,0.0,67,0.00,BKN,,0.00,234.0,WeatherDisplay:10.37,2013-03-01 17:41:00,
2013-03-01 12:46:00,42.1,32.3,29.58,North,0,0.0,0.0,68,0.00,BKN,,0.00,179.0,WeatherDisplay:10.37,2013-03-01 17:46:00,
2013-03-01 12:51:00,42.0,32.2,29.58,North,0,0.0,0.0,68,0.00,BKN,,0.00,251.0,WeatherDisplay:10.37,2013-03-01 17:51:00,
2013-03-01 12:56:00,42.1,32.3,29.58,North,0,0.0,0.0,68,0.00,BKN,,0.00,281.0,WeatherDisplay:10.37,2013-03-01 17:56:00,
2013-03-01 13:01:00,42.3,32.5,29.58,North,0,0.0,0.0,68,0.00,BKN,,0.00,288.0,WeatherDisplay:10.37,2013-03-01 18:01:00,
2013-03-01 13:06:00,42.5,32.3,29.58,North,0,0.0,0.0,67,0.00,BKN,,0.00,250.0,WeatherDisplay:10.37,2013-03-01 18:06:00,
2013-03-01 13:11:00,42.6,32.4,29.58,North,0,0.0,0.0,67,0.00,BKN,,0.00,283.0,WeatherDisplay:10.37,2013-03-01 18:11:00,
2013-03-01 13:16:00,42.8,33.0,29.58,North,0,0.0,0.0,68,0.00,BKN,,0.00,267.0,WeatherDisplay:10.37,2013-03-01 18:16:00,
2013-03-01 13:21:00,42.8,32.6,29.58,North,0,0.0,0.0,67,0.00,BKN,,0.00,237.0,WeatherDisplay:10.37,2013-03-01 18:21:00,
2013-03-01 13:26:00,42.8,32.6,29.58,North,0,0.0,0.0,67,0.00,BKN,,0.00,229.0,WeatherDisplay:10.37,2013-03-01 18:26:00,
2013-03-01 13:31:00,42.9,32.7,29.58,North,0,0.0,0.0,67,0.00,BKN,,0.00,229.0,WeatherDisplay:10.37,2013-03-01 18:31:00,
2013-03-01 13:36:00,43.0,32.4,29.58,North,0,0.0,0.0,66,0.00,BKN,,0.00,237.0,WeatherDisplay:10.37,2013-03-01 18:36:00,
2013-03-01 13:41:00,42.9,32.3,29.58,North,0,0.0,0.0,66,0.00,BKN,,0.00,216.0,WeatherDisplay:10.37,2013-03-01 18:41:00,
2013-03-01 13:46:00,42.9,32.3,29.58,North,0,0.0,0.0,66,0.00,BKN,,0.00,216.0,WeatherDisplay:10.37,2013-03-01 18:46:00,
2013-03-01 13:51:00,42.8,32.2,29.58,North,0,0.0,0.0,66,0.00,BKN,,0.00,195.0,WeatherDisplay:10.37,2013-03-01 18:51:00,
2013-03-01 13:56:00,42.7,31.7,29.58,North,0,0.0,0.0,65,0.00,BKN,,0.00,158.0,WeatherDisplay:10.37,2013-03-01 18:56:00,
2013-03-01 14:01:00,42.5,31.6,29.58,North,0,0.0,0.0,65,0.00,BKN,,0.00,132.0,WeatherDisplay:10.37,2013-03-01 19:01:00,
2013-03-01 14:06:00,42.2,31.6,29.58,North,0,0.0,0.0,66,0.00,BKN,,0.00,105.0,WeatherDisplay:10.37,2013-03-01 19:06:00,
2013-03-01 14:11:00,42.1,31.6,29.58,North,0,0.0,0.0,66,0.00,BKN,,0.00,88.0,WeatherDisplay:10.37,2013-03-01 19:11:00,
2013-03-01 14:16:00,41.9,31.7,29.58,North,0,0.0,0.0,67,0.00,BKN,,0.00,83.0,WeatherDisplay:10.37,2013-03-01 19:16:00,
2013-03-01 14:21:00,41.6,31.1,29.58,North,0,0.0,0.0,66,0.00,BKN,,0.00,74.0,WeatherDisplay:10.37,2013-03-01 19:21:00,
2013-03-01 14:26:00,41.4,30.9,29.59,North,0,0.0,0.0,66,0.00,BKN,,0.00,67.0,WeatherDisplay:10.37,2013-03-01 19:26:00,
2013-03-01 14:31:00,41.2,30.7,29.58,North,0,0.0,0.0,66,0.00,BKN,,0.00,70.0,WeatherDisplay:10.37,2013-03-01 19:31:00,
2013-03-01 14:36:00,41.0,30.9,29.59,North,0,0.0,0.0,67,0.00,BKN,,0.00,72.0,WeatherDisplay:10.37,2013-03-01 19:36:00,
2013-03-01 14:41:00,40.8,30.7,29.59,North,0,0.0,0.0,67,0.00,BKN,,0.00,81.0,WeatherDisplay:10.37,2013-03-01 19:41:00,
2013-03-01 14:46:00,40.8,31.1,29.59,North,0,0.0,0.0,68,0.00,BKN,,0.00,69.0,WeatherDisplay:10.37,2013-03-01 19:46:00,
2013-03-01 14:51:00,40.7,31.0,29.59,North,0,0.0,0.0,68,0.00,BKN,,0.00,56.0,WeatherDisplay:10.37,2013-03-01 19:51:00,
2013-03-01 14:56:00,40.5,31.1,29.59,North,0,0.0,0.0,69,0.00,BKN,,0.00,46.0,WeatherDisplay:10.37,2013-03-01 19:56:00,
2013-03-01 15:01:00,40.4,31.0,29.59,North,0,0.0,0.0,69,0.00,BKN,,0.00,42.0,WeatherDisplay:10.37,2013-03-01 20:01:00,
2013-03-01 15:06:00,40.3,30.9,29.59,North,0,0.0,0.0,69,0.00,BKN,,0.00,40.0,WeatherDisplay:10.37,2013-03-01 20:06:00,
2013-03-01 15:11:00,40.2,30.8,29.59,North,0,0.0,0.0,69,0.00,BKN,,0.00,42.0,WeatherDisplay:10.37,2013-03-01 20:11:00,
2013-03-01 15:16:00,40.1,31.1,29.59,North,0,0.0,0.0,70,0.00,BKN,,0.00,44.0,WeatherDisplay:10.37,2013-03-01 20:16:00,
2013-03-01 15:21:00,40.0,31.0,29.59,North,0,0.0,0.0,70,0.00,BKN,,0.00,42.0,WeatherDisplay:10.37,2013-03-01 20:21:00,
2013-03-01 15:26:00,39.9,30.9,29.59,North,0,0.0,0.0,70,0.00,BKN,,0.00,39.0,WeatherDisplay:10.37,2013-03-01 20:26:00,
2013-03-01 15:31:00,39.8,30.8,29.59,North,0,0.0,0.0,70,0.00,BKN,,0.00,35.0,WeatherDisplay:10.37,2013-03-01 20:31:00,
2013-03-01 15:36:00,39.6,31.0,29.60,North,0,0.0,0.0,71,0.00,BKN,,0.00,28.0,WeatherDisplay:10.37,2013-03-01 20:36:00,
2013-03-01 15:41:00,39.5,30.9,29.60,North,0,0.0,0.0,71,0.00,BKN,,0.00,25.0,WeatherDisplay:10.37,2013-03-01 20:41:00,
2013-03-01 15:46:00,39.3,30.7,29.60,North,0,0.0,0.0,71,0.00,BKN,,0.00,28.0,WeatherDisplay:10.37,2013-03-01 20:46:00,
2013-03-01 15:51:00,39.2,30.9,29.60,North,0,0.0,0.0,72,0.00,BKN,,0.00,25.0,WeatherDisplay:10.37,2013-03-01 20:51:00,
2013-03-01 15:56:00,39.0,30.7,29.61,North,0,0.0,0.0,72,0.00,BKN,,0.00,26.0,WeatherDisplay:10.37,2013-03-01 20:56:00,
2013-03-01 16:01:00,38.9,30.6,29.60,North,0,0.0,0.0,72,0.00,BKN,,0.00,25.0,WeatherDisplay:10.37,2013-03-01 21:01:00,
2013-03-01 16:06:00,38.7,30.8,29.61,North,0,0.0,0.0,73,0.00,BKN,,0.00,21.0,WeatherDisplay:10.37,2013-03-01 21:06:00,
2013-03-01 16:11:00,38.6,30.7,29.61,North,0,0.0,0.0,73,0.00,BKN,,0.00,19.0,WeatherDisplay:10.37,2013-03-01 21:11:00,
2013-03-01 16:16:00,38.4,30.2,29.61,North,0,0.0,0.0,72,0.00,BKN,,0.00,19.0,WeatherDisplay:10.37,2013-03-01 21:16:00,
2013-03-01 16:21:00,38.4,30.2,29.61,North,0,0.0,0.0,72,0.00,BKN,,0.00,19.0,WeatherDisplay:10.37,2013-03-01 21:21:00,
2013-03-01 16:26:00,38.2,29.6,29.61,North,0,0.0,0.0,71,0.00,BKN,,0.00,18.0,WeatherDisplay:10.37,2013-03-01 21:26:00,
2013-03-01 16:31:00,38.1,29.5,29.61,North,0,0.0,0.0,71,0.00,BKN,,0.00,18.0,WeatherDisplay:10.37,2013-03-01 21:31:00,
2013-03-01 16:36:00,38.1,29.9,29.61,North,0,0.0,0.0,72,0.00,BKN,,0.00,16.0,WeatherDisplay:10.37,2013-03-01 21:36:00,
2013-03-01 16:41:00,38.0,29.8,29.62,North,0,0.0,0.0,72,0.00,BKN,,0.00,12.0,WeatherDisplay:10.37,2013-03-01 21:41:00,
2013-03-01 16:46:00,37.9,29.3,29.61,North,0,0.0,0.0,71,0.00,BKN,,0.00,12.0,WeatherDisplay:10.37,2013-03-01 21:46:00,
2013-03-01 16:51:00,37.8,29.2,29.62,North,0,0.0,0.0,71,0.00,BKN,,0.00,11.0,WeatherDisplay:10.37,2013-03-01 21:51:00,
2013-03-01 16:56:00,37.8,29.6,29.62,North,0,0.0,0.0,72,0.00,BKN,,0.00,11.0,WeatherDisplay:10.37,2013-03-01 21:56:00,
2013-03-01 17:01:00,37.7,29.1,29.62,North,0,0.0,0.0,71,0.00,BKN,,0.00,7.0,WeatherDisplay:10.37,2013-03-01 22:01:00,
2013-03-01 17:06:00,37.7,29.5,29.62,North,0,0.0,0.0,72,0.00,BKN,,0.00,7.0,WeatherDisplay:10.37,2013-03-01 22:06:00,
2013-03-01 17:11:00,37.7,29.1,29.62,North,0,0.0,0.0,71,0.00,BKN,,0.00,5.0,WeatherDisplay:10.37,2013-03-01 22:11:00,
2013-03-01 17:16:00,37.6,29.4,29.63,North,0,0.0,0.0,72,0.00,BKN,,0.00,0.0,WeatherDisplay:10.37,2013-03-01 22:16:00,
2013-03-01 17:21:00,37.5,29.3,29.62,North,0,0.0,0.0,72,0.00,OVC,,0.00,0.0,WeatherDisplay:10.37,2013-03-01 22:21:00,
2013-03-01 17:26:00,37.5,29.6,29.62,North,0,0.0,0.0,73,0.00,OVC,,0.00,0.0,WeatherDisplay:10.37,2013-03-01 22:26:00,
2013-03-01 17:31:00,37.5,29.6,29.63,North,0,0.0,0.0,73,0.00,OVC,,0.00,0.0,WeatherDisplay:10.37,2013-03-01 22:31:00,
2013-03-01 17:36:00,37.4,29.5,29.63,North,0,0.0,0.0,73,0.00,OVC,,0.00,0.0,WeatherDisplay:10.37,2013-03-01 22:36:00,
2013-03-01 17:41:00,37.3,29.8,29.63,North,0,0.0,0.0,74,0.00,OVC,,0.00,0.0,WeatherDisplay:10.37,2013-03-01 22:41:00,
2013-03-01 17:46:00,37.3,29.8,29.63,North,0,0.0,0.0,74,0.00,OVC,,0.00,0.0,WeatherDisplay:10.37,2013-03-01 22:46:00,
2013-03-01 17:51:00,37.2,29.7,29.63,North,0,0.0,0.0,74,0.00,OVC,,0.00,0.0,WeatherDisplay:10.37,2013-03-01 22:51:00,
2013-03-01 17:56:00,37.1,29.9,29.63,North,0,0.0,0.0,75,0.00,OVC,,0.00,0.0,WeatherDisplay:10.37,2013-03-01 22:56:00,
2013-03-01 18:01:00,37.0,29.8,29.64,North,0,0.0,0.0,75,0.00,CLR,,0.00,0.0,WeatherDisplay:10.37,2013-03-01 23:01:00,
2013-03-01 18:06:00,36.9,29.7,29.64,North,0,0.0,0.0,75,0.00,CLR,,0.00,0.0,WeatherDisplay:10.37,2013-03-01 23:06:00,
2013-03-01 18:11:00,36.9,30.0,29.64,North,0,0.0,0.0,76,0.00,CLR,,0.00,0.0,WeatherDisplay:10.37,2013-03-01 23:11:00,
2013-03-01 18:16:00,36.8,29.9,29.64,North,0,0.0,0.0,76,0.00,CLR,,0.00,0.0,WeatherDisplay:10.37,2013-03-01 23:16:00,
2013-03-01 18:21:00,36.7,29.8,29.64,North,0,0.0,0.0,76,0.00,CLR,,0.00,0.0,WeatherDisplay:10.37,2013-03-01 23:21:00,
2013-03-01 18:26:00,36.6,29.7,29.64,North,0,0.0,0.0,76,0.00,CLR,,0.00,0.0,WeatherDisplay:10.37,2013-03-01 23:26:00,
2013-03-01 18:31:00,36.5,29.7,29.64,North,0,0.0,0.0,76,0.00,CLR,,0.00,0.0,WeatherDisplay:10.37,2013-03-01 23:31:00,
2013-03-01 18:36:00,36.5,30.0,29.64,North,0,0.0,0.0,77,0.00,CLR,,0.00,0.0,WeatherDisplay:10.37,2013-03-01 23:36:00,
2013-03-01 18:41:00,36.4,29.9,29.64,North,0,0.0,0.0,77,0.00,CLR,,0.00,0.0,WeatherDisplay:10.37,2013-03-01 23:41:00,
2013-03-01 18:46:00,36.3,30.1,29.64,North,0,0.0,0.0,78,0.00,CLR,,0.00,0.0,WeatherDisplay:10.37,2013-03-01 23:46:00,
2013-03-01 18:51:00,36.3,30.1,29.64,North,0,0.0,0.0,78,0.00,CLR,,0.00,0.0,WeatherDisplay:10.37,2013-03-01 23:51:00,
2013-03-01 18:56:00,36.2,30.0,29.64,North,0,0.0,0.0,78,0.00,CLR,,0.00,0.0,WeatherDisplay:10.37,2013-03-01 23:56:00,
2013-03-01 19:01:00,36.1,30.2,29.64,North,0,0.0,0.0,79,0.00,CLR,,0.00,0.0,WeatherDisplay:10.37,2013-03-02 00:01:00,
2013-03-01 19:06:00,36.0,30.1,29.64,North,0,0.0,0.0,79,0.00,CLR,,0.00,0.0,WeatherDisplay:10.37,2013-03-02 00:06:00,
2013-03-01 19:11:00,36.0,30.1,29.64,North,0,0.0,0.0,79,0.00,CLR,,0.00,0.0,WeatherDisplay:10.37,2013-03-02 00:11:00,
2013-03-01 19:16:00,35.9,30.0,29.64,North,0,0.0,0.0,79,0.00,CLR,,0.00,0.0,WeatherDisplay:10.37,2013-03-02 00:16:00,
2013-03-01 19:21:00,35.9,30.0,29.64,North,0,0.0,0.0,79,0.00,CLR,,0.00,0.0,WeatherDisplay:10.37,2013-03-02 00:21:00,
2013-03-01 19:26:00,35.8,30.2,29.65,North,0,0.0,0.0,80,0.00,CLR,,0.00,0.0,WeatherDisplay:10.37,2013-03-02 00:26:00,
2013-03-01 19:31:00,35.7,29.8,29.65,North,0,0.0,0.0,79,0.00,CLR,,0.00,0.0,WeatherDisplay:10.37,2013-03-02 00:31:00,
2013-03-01 19:36:00,35.7,29.8,29.65,North,0,0.0,0.0,79,0.00,CLR,,0.00,0.0,WeatherDisplay:10.37,2013-03-02 00:36:00,
2013-03-01 19:41:00,35.7,29.8,29.65,North,0,0.0,0.0,79,0.00,CLR,,0.00,0.0,WeatherDisplay:10.37,2013-03-02 00:41:00,
2013-03-01 19:46:00,35.7,29.8,29.65,North,0,0.0,0.0,79,0.00,CLR,,0.00,0.0,WeatherDisplay:10.37,2013-03-02 00:46:00,
2013-03-01 19:51:00,35.7,30.1,29.64,North,0,0.0,0.0,80,0.00,CLR,,0.00,0.0,WeatherDisplay:10.37,2013-03-02 00:51:00,
2013-03-01 19:56:00,35.7,30.1,29.65,North,0,0.0,0.0,80,0.00,CLR,,0.00,0.0,WeatherDisplay:10.37,2013-03-02 00:56:00,
2013-03-01 20:01:00,35.7,30.1,29.65,North,0,0.0,0.0,80,0.00,CLR,,0.00,0.0,WeatherDisplay:10.37,2013-03-02 01:01:00,
2013-03-01 20:06:00,35.7,30.1,29.65,North,0,0.0,0.0,80,0.00,CLR,,0.00,0.0,WeatherDisplay:10.37,2013-03-02 01:06:00,
2013-03-01 20:11:00,35.7,30.1,29.65,North,0,0.0,0.0,80,0.00,CLR,,0.00,0.0,WeatherDisplay:10.37,2013-03-02 01:11:00,
2013-03-01 20:16:00,35.7,30.1,29.65,North,0,0.0,0.0,80,0.00,CLR,,0.00,0.0,WeatherDisplay:10.37,2013-03-02 01:16:00,
2013-03-01 20:21:00,35.7,30.1,29.65,North,0,0.0,0.0,80,0.00,CLR,,0.00,0.0,WeatherDisplay:10.37,2013-03-02 01:21:00,
2013-03-01 20:26:00,35.7,30.1,29.65,North,0,0.0,0.0,80,0.00,CLR,,0.00,0.0,WeatherDisplay:10.37,2013-03-02 01:26:00,
2013-03-01 20:31:00,35.6,30.0,29.65,North,0,0.0,0.0,80,0.00,CLR,,0.00,0.0,WeatherDisplay:10.37,2013-03-02 01:31:00,
2013-03-01 20:36:00,35.6,29.7,29.65,North,0,0.0,0.0,79,0.00,CLR,,0.00,0.0,WeatherDisplay:10.37,2013-03-02 01:36:00,
2013-03-01 20:41:00,35.6,29.7,29.65,North,0,0.0,0.0,79,0.00,CLR,,0.00,0.0,WeatherDisplay:10.37,2013-03-02 01:41:00,
2013-03-01 20:46:00,35.6,29.7,29.65,North,0,0.0,0.0,79,0.00,CLR,,0.00,0.0,WeatherDisplay:10.37,2013-03-02 01:46:00,
2013-03-01 20:51:00,35.6,29.4,29.65,North,0,0.0,0.0,78,0.00,CLR,,0.00,0.0,WeatherDisplay:10.37,2013-03-02 01:51:00,
2013-03-01 20:56:00,35.6,29.4,29.65,North,0,0.0,0.0,78,0.00,CLR,,0.00,0.0,WeatherDisplay:10.37,2013-03-02 01:56:00,
2013-03-01 21:01:00,35.6,29.4,29.65,North,0,0.0,0.0,78,0.00,CLR,,0.00,0.0,WeatherDisplay:10.37,2013-03-02 02:01:00,
2013-03-01 21:06:00,35.7,29.2,29.65,North,0,0.0,0.0,77,0.00,CLR,,0.00,0.0,WeatherDisplay:10.37,2013-03-02 02:06:00,
2013-03-01 21:11:00,35.7,29.2,29.65,North,0,0.0,0.0,77,0.00,CLR,,0.00,0.0,WeatherDisplay:10.37,2013-03-02 02:11:00,
2013-03-01 21:16:00,35.7,29.2,29.64,North,0,0.0,0.0,77,0.00,CLR,,0.00,0.0,WeatherDisplay:10.37,2013-03-02 02:16:00,
2013-03-01 21:21:00,35.7,29.2,29.65,North,0,0.0,0.0,77,0.00,CLR,,0.00,0.0,WeatherDisplay:10.37,2013-03-02 02:21:00,
2013-03-01 21:26:00,35.7,28.9,29.65,North,0,0.0,0.0,76,0.00,CLR,,0.00,0.0,WeatherDisplay:10.37,2013-03-02 02:26:00,
2013-03-01 21:31:00,35.7,28.9,29.65,North,0,0.0,0.0,76,0.00,CLR,,0.00,0.0,WeatherDisplay:10.37,2013-03-02 02:31:00,
2013-03-01 21:36:00,35.7,28.9,29.65,North,0,0.0,0.0,76,0.00,CLR,,0.00,0.0,WeatherDisplay:10.37,2013-03-02 02:36:00,
2013-03-01 21:41:00,35.7,28.9,29.65,North,0,0.0,0.0,76,0.00,CLR,,0.00,0.0,WeatherDisplay:10.37,2013-03-02 02:41:00,
2013-03-01 21:46:00,35.7,28.9,29.65,North,0,0.0,0.0,76,0.00,CLR,,0.00,0.0,WeatherDisplay:10.37,2013-03-02 02:46:00,
2013-03-01 21:51:00,35.6,28.5,29.64,North,0,0.0,0.0,75,0.00,CLR,,0.00,0.0,WeatherDisplay:10.37,2013-03-02 02:51:00,
2013-03-01 21:56:00,35.6,28.5,29.65,North,0,0.0,0.0,75,0.00,CLR,,0.00,0.0,WeatherDisplay:10.37,2013-03-02 02:56:00,
2013-03-01 22:02:00,35.6,28.5,29.65,North,0,0.0,0.0,75,0.00,CLR,,0.00,0.0,WeatherDisplay:10.37,2013-03-02 03:02:00,
2013-03-01 22:07:00,35.6,28.5,29.64,North,0,0.0,0.0,75,0.00,CLR,,0.00,0.0,WeatherDisplay:10.37,2013-03-02 03:07:00,
2013-03-01 22:12:00,35.5,28.4,29.65,North,0,0.0,0.0,75,0.00,CLR,,0.00,0.0,WeatherDisplay:10.37,2013-03-02 03:12:00,
2013-03-01 22:17:00,35.5,28.4,29.65,North,0,0.0,0.0,75,0.00,CLR,,0.00,0.0,WeatherDisplay:10.37,2013-03-02 03:17:00,
2013-03-01 22:22:00,35.5,28.7,29.65,North,0,0.0,0.0,76,0.00,CLR,,0.00,0.0,WeatherDisplay:10.37,2013-03-02 03:22:00,
2013-03-01 22:27:00,35.5,28.7,29.65,North,0,0.0,0.0,76,0.00,CLR,,0.00,0.0,WeatherDisplay:10.37,2013-03-02 03:27:00,
2013-03-01 22:32:00,35.5,28.7,29.65,North,0,0.0,0.0,76,0.00,CLR,,0.00,0.0,WeatherDisplay:10.37,2013-03-02 03:32:00,
2013-03-01 22:37:00,35.4,28.6,29.65,North,0,0.0,0.0,76,0.00,CLR,,0.00,0.0,WeatherDisplay:10.37,2013-03-02 03:37:00,
2013-03-01 22:42:00,35.4,28.9,29.65,North,0,0.0,0.0,77,0.00,CLR,,0.00,0.0,WeatherDisplay:10.37,2013-03-02 03:42:00,
2013-03-01 22:47:00,35.3,28.8,29.65,North,0,0.0,0.0,77,0.00,CLR,,0.00,0.0,WeatherDisplay:10.37,2013-03-02 03:47:00,
2013-03-01 22:52:00,35.2,28.7,29.65,North,0,0.0,0.0,77,0.00,CLR,,0.00,0.0,WeatherDisplay:10.37,2013-03-02 03:52:00,
2013-03-01 22:57:00,35.1,28.6,29.65,North,0,0.0,0.0,77,0.00,CLR,,0.00,0.0,WeatherDisplay:10.37,2013-03-02 03:57:00,
2013-03-01 23:02:00,35.1,28.6,29.65,North,0,0.0,0.0,77,0.00,CLR,,0.00,0.0,WeatherDisplay:10.37,2013-03-02 04:02:00,
2013-03-01 23:07:00,35.0,28.5,29.65,North,0,0.0,0.0,77,0.00,CLR,,0.00,0.0,WeatherDisplay:10.37,2013-03-02 04:07:00,
2013-03-01 23:12:00,35.0,28.8,29.65,North,0,0.0,0.0,78,0.00,CLR,,0.00,0.0,WeatherDisplay:10.37,2013-03-02 04:12:00,
2013-03-01 23:17:00,34.9,28.7,29.65,North,0,0.0,0.0,78,0.00,CLR,,0.00,0.0,WeatherDisplay:10.37,2013-03-02 04:17:00,
2013-03-01 23:22:00,34.8,28.6,29.65,North,0,0.0,0.0,78,0.00,CLR,,0.00,0.0,WeatherDisplay:10.37,2013-03-02 04:22:00,
2013-03-01 23:27:00,34.7,28.2,29.65,North,0,0.0,0.0,77,0.00,CLR,,0.00,0.0,WeatherDisplay:10.37,2013-03-02 04:27:00,
2013-03-01 23:32:00,34.7,28.2,29.65,North,0,0.0,0.0,77,0.00,CLR,,0.00,0.0,WeatherDisplay:10.37,2013-03-02 04:32:00,
2013-03-01 23:37:00,34.6,28.4,29.65,North,0,0.0,0.0,78,0.00,CLR,,0.00,0.0,WeatherDisplay:10.37,2013-03-02 04:37:00,
2013-03-01 23:42:00,34.6,28.1,29.65,North,0,0.0,0.0,77,0.00,CLR,,0.00,0.0,WeatherDisplay:10.37,2013-03-02 04:42:00,
2013-03-01 23:47:00,34.6,28.4,29.65,North,0,0.0,0.0,78,0.00,CLR,,0.00,0.0,WeatherDisplay:10.37,2013-03-02 04:47:00,
2013-03-01 23:52:00,34.5,28.3,29.65,North,0,0.0,0.0,78,0.00,CLR,,0.00,0.0,WeatherDisplay:10.37,2013-03-02 04:52:00,
2013-03-01 23:57:00,34.5,28.3,29.65,North,0,0.0,0.0,78,0.00,CLR,,0.00,0.0,WeatherDisplay:10.37,2013-03-02 04:57:00,